Hourly Weather Gyor

Today, 10 July, Friday

Time Temperature Precipitation Wind Pressure Humidity
00:00 +20°C° 0 mm 3 mps 752 mmHg 69%
01:00 +20°C° 0 mm 3 mps 752 mmHg 70%
02:00 +19°C° 0 mm 2 mps 752 mmHg 73%
03:00 +19°C° 0 mm 2 mps 751 mmHg 76%
04:00 +18°C° 0 mm 2 mps 751 mmHg 79%
05:00 +20°C° 0 mm 3 mps 751 mmHg 75%
06:00 +22°C° 0 mm 3 mps 752 mmHg 71%
07:00 +24°C° 0 mm 3 mps 752 mmHg 67%
08:00 +26°C° 0 mm 4 mps 752 mmHg 62%
09:00 +28°C° 0 mm 4 mps 752 mmHg 56%
10:00 +30°C° 0 mm 4 mps 751 mmHg 51%
11:00 +32°C° 0 mm 5 mps 751 mmHg 48%
12:00 +33°C° 0 mm 5 mps 751 mmHg 46%
13:00 +33°C° 0 mm 6 mps 750 mmHg 44%
14:00 +34°C° 0 mm 5 mps 750 mmHg 44%
15:00 +34°C° 0 mm 5 mps 750 mmHg 43%
16:00 +34°C° 0 mm 5 mps 749 mmHg 43%
17:00 +32°C° 0 mm 5 mps 749 mmHg 50%
18:00 +30°C° 0 mm 4 mps 749 mmHg 58%
19:00 +28°C° 0 mm 4 mps 749 mmHg 65%
20:00 +27°C° 0 mm 4 mps 749 mmHg 66%
21:00 +26°C° 0 mm 4 mps 749 mmHg 67%
22:00 +25°C° 0 mm 4 mps 750 mmHg 68%
23:00 +23°C° 0 mm 4 mps 750 mmHg 73%

Tomorrow, 11 July, Saturday

Time Temperature Precipitation Wind Pressure Humidity
00:00 +22°C° 0 mm 4 mps 750 mmHg 77%
01:00 +21°C° 0 mm 4 mps 751 mmHg 81%
02:00 +21°C° 0 mm 3 mps 751 mmHg 83%
03:00 +20°C° 0 mm 3 mps 751 mmHg 85%
04:00 +20°C° 0 mm 3 mps 751 mmHg 86%
05:00 +21°C° 0 mm 3 mps 751 mmHg 83%
06:00 +22°C° 0 mm 3 mps 751 mmHg 80%
07:00 +24°C° 0 mm 3 mps 751 mmHg 77%
08:00 +25°C° 0.1 mm 3 mps 751 mmHg 73%
09:00 +26°C° 0.1 mm 4 mps 751 mmHg 69%
10:00 +27°C° 0.1 mm 4 mps 752 mmHg 65%
11:00 +26°C° 0.2 mm 5 mps 752 mmHg 68%
12:00 +23°C° 0.2 mm 7 mps 752 mmHg 70%
13:00 +22°C° 0.2 mm 9 mps 752 mmHg 72%
14:00 +21°C° 0.1 mm 9 mps 752 mmHg 71%
15:00 +21°C° 0.1 mm 8 mps 752 mmHg 69%
16:00 +20°C° 0.1 mm 8 mps 753 mmHg 67%
17:00 +18°C° 0.1 mm 8 mps 753 mmHg 70%
18:00 +17°C° 0.1 mm 8 mps 753 mmHg 74%
19:00 +16°C° 0.1 mm 8 mps 753 mmHg 77%
20:00 +15°C° 0.3 mm 7 mps 754 mmHg 81%
21:00 +15°C° 0.3 mm 6 mps 754 mmHg 86%
22:00 +14°C° 0.3 mm 5 mps 755 mmHg 90%
23:00 +14°C° 0.1 mm 5 mps 755 mmHg 90%

Day after tomorrow, 12 July, Sunday

Time Temperature Precipitation Wind Pressure Humidity
00:00 +13°C° 0.1 mm 5 mps 755 mmHg 89%
01:00 +13°C° 0.1 mm 5 mps 755 mmHg 89%
02:00 +13°C° 0 mm 5 mps 755 mmHg 88%
03:00 +13°C° 0 mm 5 mps 755 mmHg 87%
04:00 +12°C° 0 mm 5 mps 755 mmHg 86%
05:00 +13°C° 0 mm 6 mps 755 mmHg 80%
06:00 +14°C° 0 mm 7 mps 756 mmHg 74%
07:00 +15°C° 0 mm 7 mps 756 mmHg 67%
08:00 +17°C° 0 mm 7 mps 756 mmHg 61%
09:00 +18°C° 0 mm 8 mps 756 mmHg 55%
10:00 +21°C° 0 mm 8 mps 756 mmHg 49%
11:00 +22°C° 0 mm 7 mps 757 mmHg 48%
12:00 +22°C° 0 mm 7 mps 757 mmHg 46%
13:00 +23°C° 0 mm 6 mps 757 mmHg 45%
14:00 +23°C° 0 mm 6 mps 756 mmHg 45%
15:00 +23°C° 0 mm 6 mps 756 mmHg 45%
16:00 +23°C° 0 mm 6 mps 756 mmHg 45%
17:00 +22°C° 0 mm 5 mps 756 mmHg 50%
18:00 +21°C° 0 mm 5 mps 756 mmHg 56%
19:00 +20°C° 0 mm 4 mps 757 mmHg 62%
20:00 +18°C° 0 mm 4 mps 757 mmHg 66%
21:00 +17°C° 0 mm 3 mps 757 mmHg 69%
22:00 +14°C° 0 mm 3 mps 757 mmHg 72%
23:00 +14°C° 0 mm 3 mps 757 mmHg 75%

13 July, Monday

Time Temperature Precipitation Wind Pressure Humidity
00:00 +14°C° 0 mm 2 mps 757 mmHg 78%
01:00 +13°C° 0 mm 2 mps 757 mmHg 80%
02:00 +13°C° 0 mm 2 mps 757 mmHg 83%
03:00 +12°C° 0 mm 2 mps 757 mmHg 85%
04:00 +12°C° 0 mm 2 mps 757 mmHg 88%
05:00 +14°C° 0 mm 2 mps 757 mmHg 82%
06:00 +15°C° 0 mm 2 mps 757 mmHg 76%
07:00 +17°C° 0 mm 2 mps 757 mmHg 70%
08:00 +19°C° 0 mm 2 mps 757 mmHg 63%
09:00 +20°C° 0 mm 2 mps 757 mmHg 56%
10:00 +22°C° 0 mm 3 mps 757 mmHg 50%
11:00 +24°C° 0 mm 3 mps 756 mmHg 46%
12:00 +25°C° 0 mm 3 mps 756 mmHg 42%
13:00 +26°C° 0 mm 3 mps 756 mmHg 39%
14:00 +26°C° 0 mm 3 mps 755 mmHg 39%
15:00 +26°C° 0 mm 3 mps 755 mmHg 39%
16:00 +26°C° 0 mm 4 mps 754 mmHg 39%
17:00 +24°C° 0 mm 3 mps 754 mmHg 47%
18:00 +22°C° 0 mm 3 mps 754 mmHg 54%
19:00 +20°C° 0 mm 3 mps 754 mmHg 61%
20:00 +19°C° 0 mm 2 mps 754 mmHg 66%
21:00 +17°C° 0 mm 2 mps 754 mmHg 71%
22:00 +16°C° 0 mm 2 mps 754 mmHg 75%
23:00 +15°C° 0 mm 2 mps 754 mmHg 77%

14 July, Tuesday

Time Temperature Precipitation Wind Pressure Humidity
00:00 +14°C° 0 mm 1 mps 754 mmHg 79%
01:00 +14°C° 0 mm 1 mps 754 mmHg 81%
02:00 +13°C° 0 mm 1 mps 754 mmHg 83%
03:00 +13°C° 0 mm 1 mps 754 mmHg 84%
04:00 +12°C° 0 mm 1 mps 754 mmHg 86%
05:00 +14°C° 0 mm 1 mps 754 mmHg 79%
06:00 +15°C° 0 mm 1 mps 754 mmHg 73%
07:00 +18°C° 0 mm 1 mps 754 mmHg 67%
08:00 +20°C° 0 mm 1 mps 754 mmHg 61%
09:00 +22°C° 0 mm 1 mps 754 mmHg 54%
10:00 +24°C° 0 mm 1 mps 754 mmHg 48%
11:00 +25°C° 0 mm 1 mps 753 mmHg 45%
12:00 +26°C° 0 mm 1 mps 753 mmHg 41%
13:00 +27°C° 0 mm 1 mps 753 mmHg 37%
14:00 +27°C° 0 mm 1 mps 752 mmHg 36%
15:00 +27°C° 0 mm 1 mps 752 mmHg 35%
16:00 +27°C° 0 mm 1 mps 752 mmHg 35%
17:00 +25°C° 0 mm 1 mps 751 mmHg 41%
18:00 +24°C° 0 mm 2 mps 751 mmHg 48%
19:00 +21°C° 0 mm 2 mps 751 mmHg 54%
20:00 +20°C° 0 mm 2 mps 751 mmHg 58%
21:00 +19°C° 0 mm 2 mps 752 mmHg 62%
22:00 +18°C° 0 mm 2 mps 752 mmHg 65%
23:00 +17°C° 0 mm 2 mps 752 mmHg 67%

15 July, Wednesday

Time Temperature Precipitation Wind Pressure Humidity
00:00 +17°C° 0 mm 2 mps 752 mmHg 68%
01:00 +16°C° 0 mm 2 mps 752 mmHg 69%
02:00 +16°C° 0 mm 2 mps 752 mmHg 70%
03:00 +16°C° 0 mm 2 mps 752 mmHg 71%
04:00 +15°C° 0 mm 2 mps 752 mmHg 72%
05:00 +17°C° 0 mm 2 mps 752 mmHg 69%
06:00 +18°C° 0 mm 2 mps 752 mmHg 65%
07:00 +20°C° 0 mm 2 mps 752 mmHg 62%
08:00 +22°C° 0 mm 3 mps 752 mmHg 57%
09:00 +24°C° 0 mm 3 mps 752 mmHg 52%
10:00 +26°C° 0 mm 3 mps 752 mmHg 47%
11:00 +26°C° 0 mm 3 mps 752 mmHg 45%
12:00 +27°C° 0 mm 3 mps 752 mmHg 43%
13:00 +28°C° 0 mm 4 mps 752 mmHg 41%
14:00 +28°C° 0 mm 3 mps 751 mmHg 41%
15:00 +28°C° 0 mm 3 mps 751 mmHg 42%
16:00 +28°C° 0 mm 3 mps 751 mmHg 42%
17:00 +26°C° 0 mm 3 mps 751 mmHg 47%
18:00 +25°C° 0 mm 3 mps 751 mmHg 52%
19:00 +24°C° 0 mm 3 mps 751 mmHg 57%
20:00 +21°C° 0 mm 3 mps 751 mmHg 58%
21:00 +20°C° 0 mm 2 mps 751 mmHg 59%
22:00 +19°C° 0 mm 2 mps 751 mmHg 60%
23:00 +18°C° 0 mm 2 mps 751 mmHg 61%
Show more